Time,TemperatureF,DewpointF,PressureIn,WindDirection,WindDirectionDegrees,WindSpeedMPH,WindSpeedGustMPH,Humidity,HourlyPrecipIn,Conditions,Clouds,dailyrainin,SoftwareType,DateUTC
2013-01-01 00:00:00,38.1,26.6,30.33,ESE,109,0.0,0.0,63,0.00,,,0.00,VWS V13.01,2013-01-01 08:00:00,
2013-01-01 00:05:00,38.1,27.4,30.36,ESE,109,3.1,5.8,65,0.00,,,0.00,VWS V13.01,2013-01-01 08:05:00,
2013-01-01 00:10:00,38.1,28.5,30.36,ESE,109,4.0,4.9,68,0.00,,,0.00,VWS V13.01,2013-01-01 08:10:00,
2013-01-01 00:15:00,38.3,29.0,30.36,ESE,109,2.7,5.4,69,0.00,,,0.00,VWS V13.01,2013-01-01 08:15:00,
2013-01-01 00:20:00,38.1,28.9,30.36,ESE,109,0.0,0.0,69,0.00,,,0.00,VWS V13.01,2013-01-01 08:20:00,
2013-01-01 00:25:00,38.1,29.2,30.36,ESE,110,4.0,6.7,70,0.00,,,0.00,VWS V13.01,2013-01-01 08:25:00,
2013-01-01 00:30:00,38.1,29.2,30.36,ESE,110,4.0,4.0,70,0.00,,,0.00,VWS V13.01,2013-01-01 08:30:00,
2013-01-01 00:35:00,38.1,29.2,30.36,ESE,111,3.1,5.4,70,0.00,,,0.00,VWS V13.01,2013-01-01 08:35:00,
2013-01-01 00:40:00,38.1,29.6,30.36,ESE,114,5.8,6.3,71,0.00,,,0.00,VWS V13.01,2013-01-01 08:40:00,
2013-01-01 00:45:00,37.9,29.4,30.36,ESE,114,0.0,0.0,71,0.00,,,0.00,VWS V13.01,2013-01-01 08:45:00,
2013-01-01 00:50:00,37.8,28.9,30.36,ESE,115,4.9,5.8,70,0.00,,,0.00,VWS V13.01,2013-01-01 08:50:00,
2013-01-01 00:55:00,37.8,28.9,30.36,ESE,116,3.1,3.1,70,0.00,,,0.00,VWS V13.01,2013-01-01 08:55:00,
2013-01-01 01:00:00,37.8,29.2,30.36,ESE,103,3.6,3.6,71,0.00,,,0.00,VWS V13.01,2013-01-01 09:00:00,
2013-01-01 01:05:00,37.8,28.9,30.36,ESE,116,8.1,8.3,70,0.00,,,0.00,VWS V13.01,2013-01-01 09:05:00,
2013-01-01 01:10:00,37.8,28.9,30.36,ESE,111,8.7,11.0,70,0.00,,,0.00,VWS V13.01,2013-01-01 09:10:00,
2013-01-01 01:15:00,37.8,28.5,30.36,SSE,158,3.1,3.6,69,0.00,,,0.00,VWS V13.01,2013-01-01 09:15:00,
2013-01-01 01:20:00,37.8,28.5,30.36,SE,146,4.9,5.4,69,0.00,,,0.00,VWS V13.01,2013-01-01 09:20:00,
2013-01-01 01:25:00,37.6,28.7,30.36,ESE,113,6.3,6.3,70,0.00,,,0.00,VWS V13.01,2013-01-01 09:25:00,
2013-01-01 01:30:00,37.6,28.7,30.36,ESE,113,7.6,8.1,70,0.00,,,0.00,VWS V13.01,2013-01-01 09:30:00,
2013-01-01 01:35:00,37.6,28.7,30.36,ESE,116,2.7,4.0,70,0.00,,,0.00,VWS V13.01,2013-01-01 09:35:00,
2013-01-01 01:40:00,37.4,28.2,30.36,ESE,105,3.1,7.6,69,0.00,,,0.00,VWS V13.01,2013-01-01 09:40:00,
2013-01-01 01:45:00,37.4,28.5,30.36,ESE,111,5.8,8.7,70,0.00,,,0.00,VWS V13.01,2013-01-01 09:45:00,
2013-01-01 01:50:00,37.4,28.9,30.36,ESE,111,8.3,8.3,71,0.00,,,0.00,VWS V13.01,2013-01-01 09:50:00,
2013-01-01 01:55:00,37.2,28.7,30.36,ESE,115,4.0,4.0,71,0.00,,,0.00,VWS V13.01,2013-01-01 09:55:00,
2013-01-01 02:00:00,37.2,28.7,30.36,ESE,105,5.4,6.3,71,0.00,,,0.00,VWS V13.01,2013-01-01 10:00:00,
2013-01-01 02:05:00,37.2,28.0,30.36,ESE,106,5.4,8.7,69,0.00,,,0.00,VWS V13.01,2013-01-01 10:05:00,
2013-01-01 02:10:00,37.2,28.0,30.36,ESE,109,13.2,13.2,69,0.00,,,0.00,VWS V13.01,2013-01-01 10:10:00,
2013-01-01 02:15:00,37.0,27.1,30.36,ESE,118,8.1,8.7,67,0.00,,,0.00,VWS V13.01,2013-01-01 10:15:00,
2013-01-01 02:20:00,37.0,26.8,30.39,ESE,117,7.6,8.3,66,0.00,,,0.00,VWS V13.01,2013-01-01 10:20:00,
2013-01-01 02:25:00,37.2,26.9,30.39,SSE,151,3.6,5.8,66,0.00,,,0.00,VWS V13.01,2013-01-01 10:25:00,
2013-01-01 02:30:00,37.0,26.8,30.39,SSE,160,5.4,5.8,66,0.00,,,0.00,VWS V13.01,2013-01-01 10:30:00,
2013-01-01 02:35:00,37.0,26.8,30.39,ESE,112,0.0,4.0,66,0.00,,,0.00,VWS V13.01,2013-01-01 10:35:00,
2013-01-01 02:40:00,37.0,26.8,30.39,SSE,155,3.1,8.3,66,0.00,,,0.00,VWS V13.01,2013-01-01 10:40:00,
2013-01-01 02:45:00,37.0,26.4,30.39,SE,124,5.4,7.6,65,0.00,,,0.00,VWS V13.01,2013-01-01 10:45:00,
2013-01-01 02:50:00,37.0,26.0,30.39,ESE,108,7.6,10.1,64,0.00,,,0.00,VWS V13.01,2013-01-01 10:50:00,
2013-01-01 02:55:00,37.0,25.6,30.39,South,169,5.4,5.4,63,0.00,,,0.00,VWS V13.01,2013-01-01 10:55:00,
2013-01-01 03:00:00,36.9,25.1,30.39,South,178,0.0,3.1,62,0.00,,,0.00,VWS V13.01,2013-01-01 11:00:00,
2013-01-01 03:05:00,37.0,24.5,30.39,SSE,154,2.7,5.8,60,0.00,,,0.00,VWS V13.01,2013-01-01 11:05:00,
2013-01-01 03:11:00,37.0,24.1,30.39,SE,124,10.1,10.1,59,0.00,,,0.00,VWS V13.01,2013-01-01 11:11:00,
2013-01-01 03:22:00,37.0,23.2,30.39,ESE,117,7.2,7.2,57,0.00,,,0.00,VWS V13.01,2013-01-01 11:22:00,
2013-01-01 03:27:00,37.0,23.2,30.39,ESE,119,11.9,11.9,57,0.00,,,0.00,VWS V13.01,2013-01-01 11:27:00,
2013-01-01 03:32:00,37.0,23.2,30.39,ESE,106,8.1,8.1,57,0.00,,,0.00,VWS V13.01,2013-01-01 11:32:00,
2013-01-01 03:37:00,37.0,23.2,30.39,ESE,123,4.0,5.8,57,0.00,,,0.00,VWS V13.01,2013-01-01 11:37:00,
2013-01-01 03:42:00,37.0,23.2,30.39,ESE,109,8.1,8.7,57,0.00,,,0.00,VWS V13.01,2013-01-01 11:42:00,
2013-01-01 03:47:00,36.9,22.6,30.39,ESE,122,8.1,8.1,56,0.00,,,0.00,VWS V13.01,2013-01-01 11:47:00,
2013-01-01 03:52:00,36.9,22.2,30.36,ESE,123,10.1,10.1,55,0.00,,,0.00,VWS V13.01,2013-01-01 11:52:00,
2013-01-01 03:57:00,37.0,22.4,30.36,SE,128,8.7,11.0,55,0.00,,,0.00,VWS V13.01,2013-01-01 11:57:00,
2013-01-01 04:02:00,36.9,22.2,30.36,SE,137,8.1,11.0,55,0.00,,,0.00,VWS V13.01,2013-01-01 12:02:00,
2013-01-01 04:07:00,36.9,22.2,30.36,SE,129,8.7,8.7,55,0.00,,,0.00,VWS V13.01,2013-01-01 12:07:00,
2013-01-01 04:12:00,36.9,22.2,30.36,ESE,116,8.7,11.4,55,0.00,,,0.00,VWS V13.01,2013-01-01 12:12:00,
2013-01-01 04:17:00,36.7,22.0,30.36,ESE,115,12.3,12.3,55,0.00,,,0.00,VWS V13.01,2013-01-01 12:17:00,
2013-01-01 04:22:00,36.7,22.0,30.36,ESE,110,7.6,8.3,55,0.00,,,0.00,VWS V13.01,2013-01-01 12:22:00,
2013-01-01 04:27:00,36.7,22.5,30.36,SE,137,5.4,10.1,56,0.00,,,0.00,VWS V13.01,2013-01-01 12:27:00,
2013-01-01 04:32:00,36.7,22.5,30.36,SE,126,8.3,8.3,56,0.00,,,0.00,VWS V13.01,2013-01-01 12:32:00,
2013-01-01 04:37:00,36.7,22.0,30.33,SE,131,13.2,13.2,55,0.00,,,0.00,VWS V13.01,2013-01-01 12:37:00,
2013-01-01 04:42:00,36.5,21.9,30.33,ESE,110,8.7,12.3,55,0.00,,,0.00,VWS V13.01,2013-01-01 12:42:00,
2013-01-01 04:47:00,36.7,22.0,30.33,SE,137,11.0,11.0,55,0.00,,,0.00,VWS V13.01,2013-01-01 12:47:00,
2013-01-01 04:52:00,36.5,21.9,30.33,ESE,120,3.1,5.4,55,0.00,,,0.00,VWS V13.01,2013-01-01 12:52:00,
2013-01-01 04:57:00,36.5,21.9,30.33,SSE,154,5.8,10.1,55,0.00,,,0.00,VWS V13.01,2013-01-01 12:57:00,
2013-01-01 05:02:00,36.7,21.6,30.33,SSE,153,12.3,12.3,54,0.00,,,0.00,VWS V13.01,2013-01-01 13:02:00,
2013-01-01 05:07:00,36.7,21.6,30.33,SSE,154,11.0,11.0,54,0.00,,,0.00,VWS V13.01,2013-01-01 13:07:00,
2013-01-01 05:12:00,36.3,21.3,30.33,ESE,113,8.3,8.3,54,0.00,,,0.00,VWS V13.01,2013-01-01 13:12:00,
2013-01-01 05:17:00,36.3,21.7,30.33,ESE,121,3.6,6.3,55,0.00,,,0.00,VWS V13.01,2013-01-01 13:17:00,
2013-01-01 05:22:00,36.3,22.1,30.36,SE,144,2.2,5.4,56,0.00,,,0.00,VWS V13.01,2013-01-01 13:22:00,
2013-01-01 05:27:00,36.1,22.0,30.36,ESE,116,3.6,6.3,56,0.00,,,0.00,VWS V13.01,2013-01-01 13:27:00,
2013-01-01 05:32:00,36.1,22.0,30.36,ESE,112,5.8,5.8,56,0.00,,,0.00,VWS V13.01,2013-01-01 13:32:00,
2013-01-01 05:37:00,36.0,21.8,30.36,ESE,113,0.0,3.1,56,0.00,,,0.00,VWS V13.01,2013-01-01 13:37:00,
2013-01-01 05:42:00,36.0,22.2,30.36,SSE,155,4.0,9.6,57,0.00,,,0.00,VWS V13.01,2013-01-01 13:42:00,
2013-01-01 05:47:00,35.8,22.0,30.36,SSE,155,3.6,3.6,57,0.00,,,0.00,VWS V13.01,2013-01-01 13:47:00,
2013-01-01 05:52:00,35.8,22.0,30.36,SSE,152,6.3,6.3,57,0.00,,,0.00,VWS V13.01,2013-01-01 13:52:00,
2013-01-01 05:57:00,35.6,22.3,30.36,SSE,151,0.0,4.0,58,0.00,,,0.00,VWS V13.01,2013-01-01 13:57:00,
2013-01-01 06:02:00,35.6,22.3,30.36,SSE,151,0.0,0.0,58,0.00,,,0.00,VWS V13.01,2013-01-01 14:02:00,
2013-01-01 06:07:00,35.4,22.1,30.36,SSE,150,0.0,3.1,58,0.00,,,0.00,VWS V13.01,2013-01-01 14:07:00,
2013-01-01 06:12:00,35.4,22.5,30.36,SE,128,7.6,7.6,59,0.00,,,0.00,VWS V13.01,2013-01-01 14:12:00,
2013-01-01 06:17:00,35.4,22.5,30.36,SE,128,2.7,2.7,59,0.00,,,0.00,VWS V13.01,2013-01-01 14:17:00,
2013-01-01 06:22:00,35.4,22.5,30.36,SE,129,0.0,0.0,59,0.00,,,0.00,VWS V13.01,2013-01-01 14:22:00,
2013-01-01 06:27:00,35.4,22.1,30.36,SE,130,3.1,3.1,58,0.00,,,0.00,VWS V13.01,2013-01-01 14:27:00,
2013-01-01 06:32:00,35.4,22.1,30.36,SE,142,5.4,5.4,58,0.00,,,0.00,VWS V13.01,2013-01-01 14:32:00,
2013-01-01 06:37:00,35.4,22.1,30.36,SE,127,2.2,3.6,58,0.00,,,0.00,VWS V13.01,2013-01-01 14:37:00,
2013-01-01 06:42:00,35.4,21.7,30.36,SE,139,3.6,3.6,57,0.00,,,0.00,VWS V13.01,2013-01-01 14:42:00,
2013-01-01 06:47:00,35.4,21.7,30.36,SE,139,2.7,2.7,57,0.00,,,0.00,VWS V13.01,2013-01-01 14:47:00,
2013-01-01 06:52:00,35.2,21.5,30.36,SE,142,6.3,8.1,57,0.00,,,0.00,VWS V13.01,2013-01-01 14:52:00,
2013-01-01 06:57:00,35.4,21.7,30.36,SE,137,5.4,9.6,57,0.00,,,0.00,VWS V13.01,2013-01-01 14:57:00,
2013-01-01 07:02:00,35.4,21.3,30.36,SE,139,5.4,6.7,56,0.00,,,0.00,VWS V13.01,2013-01-01 15:02:00,
2013-01-01 07:07:00,35.2,21.1,30.36,SE,142,3.6,8.3,56,0.00,,,0.00,VWS V13.01,2013-01-01 15:07:00,
2013-01-01 07:12:00,35.2,21.1,30.36,ESE,122,6.3,6.3,56,0.00,,,0.00,VWS V13.01,2013-01-01 15:12:00,
2013-01-01 07:17:00,35.1,21.0,30.36,SE,133,4.9,6.3,56,0.00,,,0.00,VWS V13.01,2013-01-01 15:17:00,
2013-01-01 07:22:00,35.1,21.0,30.36,SE,137,3.1,4.0,56,0.00,,,0.00,VWS V13.01,2013-01-01 15:22:00,
2013-01-01 07:27:00,34.9,20.8,30.36,SE,137,2.2,5.4,56,0.00,,,0.00,VWS V13.01,2013-01-01 15:27:00,
2013-01-01 07:32:00,34.9,20.8,30.36,SE,133,6.3,6.3,56,0.00,,,0.00,VWS V13.01,2013-01-01 15:32:00,
2013-01-01 07:37:00,34.7,20.6,30.36,SE,132,6.3,7.2,56,0.00,,,0.00,VWS V13.01,2013-01-01 15:37:00,
2013-01-01 07:42:00,34.7,21.0,30.36,SE,131,5.8,5.8,57,0.00,,,0.00,VWS V13.01,2013-01-01 15:42:00,
2013-01-01 07:47:00,34.5,20.9,30.36,SE,131,0.0,0.0,57,0.00,,,0.00,VWS V13.01,2013-01-01 15:47:00,
2013-01-01 07:52:00,34.5,20.9,30.36,SE,131,3.1,3.1,57,0.00,,,0.00,VWS V13.01,2013-01-01 15:52:00,
2013-01-01 07:57:00,34.3,20.7,30.36,SE,131,0.0,0.0,57,0.00,,,0.00,VWS V13.01,2013-01-01 15:57:00,
2013-01-01 08:02:00,34.3,20.7,30.36,SE,131,0.0,0.0,57,0.00,,,0.00,VWS V13.01,2013-01-01 16:02:00,
2013-01-01 08:07:00,34.3,20.7,30.39,ESE,113,8.3,8.3,57,0.00,,,0.00,VWS V13.01,2013-01-01 16:07:00,
2013-01-01 08:12:00,34.3,20.3,30.39,ESE,113,2.7,2.7,56,0.00,,,0.00,VWS V13.01,2013-01-01 16:12:00,
2013-01-01 08:17:00,34.3,20.7,30.39,ESE,113,0.0,0.0,57,0.00,,,0.00,VWS V13.01,2013-01-01 16:17:00,
2013-01-01 08:22:00,34.3,20.7,30.39,ESE,113,3.1,5.4,57,0.00,,,0.00,VWS V13.01,2013-01-01 16:22:00,
2013-01-01 08:27:00,34.3,20.7,30.39,East,100,3.1,3.6,57,0.00,,,0.00,VWS V13.01,2013-01-01 16:27:00,
2013-01-01 08:32:00,34.3,20.3,30.39,ESE,102,5.4,5.4,56,0.00,,,0.00,VWS V13.01,2013-01-01 16:32:00,
2013-01-01 08:37:00,34.3,20.3,30.39,ESE,102,4.9,4.9,56,0.00,,,0.00,VWS V13.01,2013-01-01 16:37:00,
2013-01-01 08:42:00,34.3,20.7,30.39,ESE,103,5.8,5.8,57,0.00,,,0.00,VWS V13.01,2013-01-01 16:42:00,
2013-01-01 08:47:00,34.5,21.3,30.39,ESE,108,5.4,6.7,58,0.00,,,0.00,VWS V13.01,2013-01-01 16:47:00,
2013-01-01 08:52:00,34.5,20.5,30.39,East,99,8.7,8.7,56,0.00,,,0.00,VWS V13.01,2013-01-01 16:52:00,
2013-01-01 08:57:00,34.9,19.9,30.39,ESE,114,8.1,10.5,54,0.00,,,0.00,VWS V13.01,2013-01-01 16:57:00,
2013-01-01 09:02:00,34.9,19.5,30.39,ENE,77,8.7,8.7,53,0.00,,,0.00,VWS V13.01,2013-01-01 17:02:00,
2013-01-01 09:07:00,34.9,19.5,30.39,ENE,74,7.6,7.6,53,0.00,,,0.00,VWS V13.01,2013-01-01 17:07:00,
2013-01-01 09:12:00,34.9,19.5,30.39,East,82,3.1,3.1,53,0.00,,,0.00,VWS V13.01,2013-01-01 17:12:00,
2013-01-01 09:17:00,35.1,19.2,30.39,ESE,112,5.4,7.2,52,0.00,,,0.00,VWS V13.01,2013-01-01 17:17:00,
2013-01-01 09:22:00,35.2,19.8,30.39,ESE,114,2.7,6.3,53,0.00,,,0.00,VWS V13.01,2013-01-01 17:22:00,
2013-01-01 09:27:00,35.4,20.0,30.39,SE,135,5.8,9.2,53,0.00,,,0.00,VWS V13.01,2013-01-01 17:27:00,
2013-01-01 09:32:00,35.8,19.9,30.39,ESE,114,6.3,6.3,52,0.00,,,0.00,VWS V13.01,2013-01-01 17:32:00,
2013-01-01 09:37:00,36.0,19.6,30.39,SE,141,4.9,8.3,51,0.00,,,0.00,VWS V13.01,2013-01-01 17:37:00,
2013-01-01 09:42:00,36.1,19.8,30.39,ESE,115,4.0,4.5,51,0.00,,,0.00,VWS V13.01,2013-01-01 17:42:00,
2013-01-01 09:47:00,36.5,19.6,30.39,ESE,120,3.1,6.3,50,0.00,,,0.00,VWS V13.01,2013-01-01 17:47:00,
2013-01-01 09:52:00,36.7,19.8,30.39,ESE,108,8.7,8.7,50,0.00,,,0.00,VWS V13.01,2013-01-01 17:52:00,
2013-01-01 09:57:00,36.7,19.3,30.39,ESE,110,5.8,5.8,49,0.00,,,0.00,VWS V13.01,2013-01-01 17:57:00,
2013-01-01 10:02:00,36.9,19.0,30.39,ESE,117,8.1,8.1,48,0.00,,,0.00,VWS V13.01,2013-01-01 18:02:00,
2013-01-01 10:07:00,37.0,19.2,30.39,ESE,110,8.7,8.7,48,0.00,,,0.00,VWS V13.01,2013-01-01 18:07:00,
2013-01-01 10:12:00,37.2,18.9,30.39,ESE,110,10.5,10.5,47,0.00,,,0.00,VWS V13.01,2013-01-01 18:12:00,
2013-01-01 10:17:00,37.4,18.5,30.39,SE,140,5.4,6.3,46,0.00,,,0.00,VWS V13.01,2013-01-01 18:17:00,
2013-01-01 10:22:00,37.6,18.7,30.39,ESE,123,4.5,6.3,46,0.00,,,0.00,VWS V13.01,2013-01-01 18:22:00,
2013-01-01 10:27:00,37.8,18.3,30.39,SE,127,6.3,11.0,45,0.00,,,0.00,VWS V13.01,2013-01-01 18:27:00,
2013-01-01 10:32:00,37.9,18.5,30.39,ESE,122,10.1,10.1,45,0.00,,,0.00,VWS V13.01,2013-01-01 18:32:00,
2013-01-01 10:37:00,38.3,18.3,30.39,SSE,160,3.1,5.8,44,0.00,,,0.00,VWS V13.01,2013-01-01 18:37:00,
2013-01-01 10:42:00,38.5,18.5,30.39,SSE,158,7.6,8.7,44,0.00,,,0.00,VWS V13.01,2013-01-01 18:42:00,
2013-01-01 10:47:00,38.8,18.8,30.39,ESE,118,8.1,8.1,44,0.00,,,0.00,VWS V13.01,2013-01-01 18:47:00,
2013-01-01 10:52:00,38.8,18.3,30.39,SE,129,0.0,0.0,43,0.00,,,0.00,VWS V13.01,2013-01-01 18:52:00,
2013-01-01 10:57:00,39.2,18.6,30.39,ESE,118,5.8,8.1,43,0.00,,,0.00,VWS V13.01,2013-01-01 18:57:00,
2013-01-01 11:02:00,39.4,18.2,30.39,SE,136,8.3,8.3,42,0.00,,,0.00,VWS V13.01,2013-01-01 19:02:00,
2013-01-01 11:07:00,39.4,17.7,30.39,ESE,117,6.3,6.3,41,0.00,,,0.00,VWS V13.01,2013-01-01 19:07:00,
2013-01-01 11:12:00,39.7,18.5,30.39,ESE,111,3.6,4.9,42,0.00,,,0.00,VWS V13.01,2013-01-01 19:12:00,
2013-01-01 11:17:00,39.6,17.8,30.39,ESE,110,8.7,10.5,41,0.00,,,0.00,VWS V13.01,2013-01-01 19:17:00,
2013-01-01 11:22:00,39.6,17.8,30.39,East,99,8.3,8.3,41,0.00,,,0.00,VWS V13.01,2013-01-01 19:22:00,
2013-01-01 11:27:00,39.4,17.7,30.39,ESE,115,8.3,8.3,41,0.00,,,0.00,VWS V13.01,2013-01-01 19:27:00,
2013-01-01 11:32:00,39.7,18.0,30.39,ESE,113,14.5,14.5,41,0.00,,,0.00,VWS V13.01,2013-01-01 19:32:00,
2013-01-01 11:37:00,39.9,18.1,30.36,ESE,107,4.9,8.1,41,0.00,,,0.00,VWS V13.01,2013-01-01 19:37:00,
2013-01-01 11:42:00,40.1,17.7,30.36,SE,125,9.6,9.6,40,0.00,,,0.00,VWS V13.01,2013-01-01 19:42:00,
2013-01-01 11:47:00,40.3,17.9,30.36,SE,133,5.4,8.1,40,0.00,,,0.00,VWS V13.01,2013-01-01 19:47:00,
2013-01-01 11:52:00,40.6,18.2,30.36,SSE,151,3.6,5.8,40,0.00,,,0.00,VWS V13.01,2013-01-01 19:52:00,
2013-01-01 11:57:00,41.0,18.5,30.36,ESE,110,10.5,10.5,40,0.00,,,0.00,VWS V13.01,2013-01-01 19:57:00,
2013-01-01 12:02:00,40.8,18.4,30.36,ESE,120,6.3,10.1,40,0.00,,,0.00,VWS V13.01,2013-01-01 20:02:00,
2013-01-01 12:07:00,41.4,18.3,30.36,SE,143,5.4,5.4,39,0.00,,,0.00,VWS V13.01,2013-01-01 20:07:00,
2013-01-01 12:12:00,41.9,18.8,30.36,ESE,117,2.7,3.6,39,0.00,,,0.00,VWS V13.01,2013-01-01 20:12:00,
2013-01-01 12:17:00,42.3,19.1,30.36,SSE,155,7.6,8.1,39,0.00,,,0.00,VWS V13.01,2013-01-01 20:17:00,
2013-01-01 12:22:00,42.3,19.1,30.36,ESE,123,8.7,8.7,39,0.00,,,0.00,VWS V13.01,2013-01-01 20:22:00,
2013-01-01 12:27:00,42.4,19.2,30.36,ESE,102,5.8,6.3,39,0.00,,,0.00,VWS V13.01,2013-01-01 20:27:00,
2013-01-01 12:32:00,42.6,19.4,30.36,ESE,120,8.3,8.3,39,0.00,,,0.00,VWS V13.01,2013-01-01 20:32:00,
2013-01-01 12:37:00,43.0,19.7,30.33,ESE,117,5.8,5.8,39,0.00,,,0.00,VWS V13.01,2013-01-01 20:37:00,
2013-01-01 12:42:00,43.2,19.9,30.33,ESE,123,3.6,4.9,39,0.00,,,0.00,VWS V13.01,2013-01-01 20:42:00,
2013-01-01 12:47:00,43.0,19.1,30.33,ESE,117,7.6,11.0,38,0.00,,,0.00,VWS V13.01,2013-01-01 20:47:00,
2013-01-01 12:52:00,43.3,20.1,30.33,ESE,118,5.8,6.3,39,0.00,,,0.00,VWS V13.01,2013-01-01 20:52:00,
2013-01-01 12:57:00,43.2,19.3,30.33,ESE,104,7.6,7.6,38,0.00,,,0.00,VWS V13.01,2013-01-01 20:57:00,
2013-01-01 13:02:00,43.7,19.8,30.33,East,101,5.4,8.7,38,0.00,,,0.00,VWS V13.01,2013-01-01 21:02:00,
2013-01-01 13:07:00,44.1,20.1,30.33,ESE,103,5.8,8.1,38,0.00,,,0.00,VWS V13.01,2013-01-01 21:07:00,
2013-01-01 13:12:00,44.2,20.3,30.33,ESE,106,5.4,5.4,38,0.00,,,0.00,VWS V13.01,2013-01-01 21:12:00,
2013-01-01 13:17:00,44.4,20.4,30.33,ESE,113,10.1,10.1,38,0.00,,,0.00,VWS V13.01,2013-01-01 21:17:00,
2013-01-01 13:22:00,44.8,20.7,30.33,ESE,122,6.7,6.7,38,0.00,,,0.00,VWS V13.01,2013-01-01 21:22:00,
2013-01-01 13:27:00,44.8,20.7,30.33,SE,142,5.8,5.8,38,0.00,,,0.00,VWS V13.01,2013-01-01 21:27:00,
2013-01-01 13:32:00,45.1,21.1,30.33,SE,128,8.7,8.7,38,0.00,,,0.00,VWS V13.01,2013-01-01 21:32:00,
2013-01-01 13:37:00,45.5,21.4,30.33,SE,125,4.0,5.8,38,0.00,,,0.00,VWS V13.01,2013-01-01 21:37:00,
2013-01-01 13:42:00,45.9,21.7,30.33,ESE,118,8.1,8.1,38,0.00,,,0.00,VWS V13.01,2013-01-01 21:42:00,
2013-01-01 13:47:00,45.9,21.7,30.33,ESE,112,10.1,10.1,38,0.00,,,0.00,VWS V13.01,2013-01-01 21:47:00,
2013-01-01 13:52:00,46.0,21.9,30.33,SE,143,8.3,8.3,38,0.00,,,0.00,VWS V13.01,2013-01-01 21:52:00,
2013-01-01 13:57:00,46.2,22.0,30.33,ESE,116,4.9,7.6,38,0.00,,,0.00,VWS V13.01,2013-01-01 21:57:00,
2013-01-01 14:02:00,46.6,21.7,30.33,ESE,121,2.7,6.7,37,0.00,,,0.00,VWS V13.01,2013-01-01 22:02:00,
2013-01-01 14:07:00,46.6,21.7,30.33,ESE,112,6.3,8.7,37,0.00,,,0.00,VWS V13.01,2013-01-01 22:07:00,
2013-01-01 14:12:00,46.6,21.7,30.33,SE,135,5.4,8.3,37,0.00,,,0.00,VWS V13.01,2013-01-01 22:12:00,
2013-01-01 14:17:00,46.6,21.7,30.33,SE,142,8.1,9.6,37,0.00,,,0.00,VWS V13.01,2013-01-01 22:17:00,
2013-01-01 14:22:00,46.2,22.0,30.33,SSE,151,13.2,13.2,38,0.00,,,0.00,VWS V13.01,2013-01-01 22:22:00,
2013-01-01 14:27:00,46.6,21.7,30.33,SE,126,7.6,10.5,37,0.00,,,0.00,VWS V13.01,2013-01-01 22:27:00,
2013-01-01 14:32:00,46.6,21.7,30.33,SE,138,3.6,8.7,37,0.00,,,0.00,VWS V13.01,2013-01-01 22:32:00,
2013-01-01 14:37:00,46.8,21.9,30.33,ESE,102,10.5,10.5,37,0.00,,,0.00,VWS V13.01,2013-01-01 22:37:00,
2013-01-01 14:42:00,46.8,21.9,30.33,ESE,113,5.8,7.6,37,0.00,,,0.00,VWS V13.01,2013-01-01 22:42:00,
2013-01-01 14:47:00,46.6,21.7,30.33,ESE,115,10.1,10.1,37,0.00,,,0.00,VWS V13.01,2013-01-01 22:47:00,
2013-01-01 14:52:00,46.6,21.7,30.33,SE,135,9.6,10.5,37,0.00,,,0.00,VWS V13.01,2013-01-01 22:52:00,
2013-01-01 14:57:00,46.6,21.7,30.33,ESE,102,5.4,8.1,37,0.00,,,0.00,VWS V13.01,2013-01-01 22:57:00,
2013-01-01 15:02:00,46.6,21.7,30.33,SE,124,8.1,10.1,37,0.00,,,0.00,VWS V13.01,2013-01-01 23:02:00,
2013-01-01 15:07:00,46.2,22.0,30.33,ESE,112,10.5,12.8,38,0.00,,,0.00,VWS V13.01,2013-01-01 23:07:00,
2013-01-01 15:12:00,46.0,21.9,30.33,ESE,115,8.1,12.3,38,0.00,,,0.00,VWS V13.01,2013-01-01 23:12:00,
2013-01-01 15:17:00,45.9,21.7,30.33,SE,124,11.0,14.1,38,0.00,,,0.00,VWS V13.01,2013-01-01 23:17:00,
2013-01-01 15:21:00,45.9,21.7,30.30,ESE,118,8.3,12.8,38,0.00,,,0.00,VWS V13.01,2013-01-01 23:21:00,
2013-01-01 15:26:00,46.0,21.9,30.30,SE,133,10.5,10.5,38,0.00,,,0.00,VWS V13.01,2013-01-01 23:26:00,
2013-01-01 15:31:00,45.9,21.7,30.30,SE,124,8.7,13.2,38,0.00,,,0.00,VWS V13.01,2013-01-01 23:31:00,
2013-01-01 15:36:00,45.9,21.7,30.30,SE,141,10.1,12.8,38,0.00,,,0.00,VWS V13.01,2013-01-01 23:36:00,
2013-01-01 15:42:00,45.9,21.7,30.30,ESE,110,8.3,12.3,38,0.00,,,0.00,VWS V13.01,2013-01-01 23:42:00,
2013-01-01 15:46:00,46.0,21.9,30.30,East,98,8.7,11.0,38,0.00,,,0.00,VWS V13.01,2013-01-01 23:46:00,
2013-01-01 15:51:00,45.9,21.7,30.30,ESE,123,11.4,11.4,38,0.00,,,0.00,VWS V13.01,2013-01-01 23:51:00,
2013-01-01 15:56:00,45.7,21.5,30.30,ESE,107,6.3,10.1,38,0.00,,,0.00,VWS V13.01,2013-01-01 23:56:00,
2013-01-01 16:01:00,45.5,21.4,30.30,East,100,8.1,10.1,38,0.00,,,0.00,VWS V13.01,2013-01-02 00:01:00,
2013-01-01 16:06:00,45.3,21.2,30.30,ESE,112,8.1,11.4,38,0.00,,,0.00,VWS V13.01,2013-01-02 00:06:00,
2013-01-01 16:11:00,45.1,21.1,30.30,ESE,116,7.6,12.8,38,0.00,,,0.00,VWS V13.01,2013-01-02 00:11:00,
2013-01-01 16:16:00,45.0,20.9,30.30,ESE,116,10.1,12.8,38,0.00,,,0.00,VWS V13.01,2013-01-02 00:16:00,
2013-01-01 16:21:00,44.6,20.6,30.30,East,90,8.3,8.7,38,0.00,,,0.00,VWS V13.01,2013-01-02 00:21:00,
2013-01-01 16:26:00,44.2,20.3,30.30,SE,145,10.5,13.2,38,0.00,,,0.00,VWS V13.01,2013-01-02 00:26:00,
2013-01-01 16:31:00,44.1,20.1,30.30,SE,124,11.4,11.4,38,0.00,,,0.00,VWS V13.01,2013-01-02 00:31:00,
2013-01-01 16:36:00,43.7,19.8,30.30,ESE,115,5.8,11.0,38,0.00,,,0.00,VWS V13.01,2013-01-02 00:36:00,
2013-01-01 16:41:00,43.3,19.5,30.30,SE,138,12.3,12.3,38,0.00,,,0.00,VWS V13.01,2013-01-02 00:41:00,
2013-01-01 16:46:00,43.0,19.1,30.30,SE,134,8.7,11.0,38,0.00,,,0.00,VWS V13.01,2013-01-02 00:46:00,
2013-01-01 16:51:00,42.8,19.6,30.30,SE,128,7.6,7.6,39,0.00,,,0.00,VWS V13.01,2013-01-02 00:51:00,
2013-01-01 16:56:00,42.4,19.2,30.30,SE,131,5.8,11.0,39,0.00,,,0.00,VWS V13.01,2013-01-02 00:56:00,
2013-01-01 17:01:00,42.1,18.9,30.30,SSE,157,6.3,8.3,39,0.00,,,0.00,VWS V13.01,2013-01-02 01:01:00,
2013-01-01 17:06:00,41.7,18.6,30.30,SSE,162,10.5,12.8,39,0.00,,,0.00,VWS V13.01,2013-01-02 01:06:00,
2013-01-01 17:11:00,41.5,18.4,30.30,ESE,110,11.0,12.8,39,0.00,,,0.00,VWS V13.01,2013-01-02 01:11:00,
2013-01-01 17:16:00,41.2,18.1,30.30,ESE,114,10.1,13.2,39,0.00,,,0.00,VWS V13.01,2013-01-02 01:16:00,
2013-01-01 17:21:00,41.0,18.0,30.30,SE,140,11.0,11.0,39,0.00,,,0.00,VWS V13.01,2013-01-02 01:21:00,
2013-01-01 17:26:00,40.8,18.4,30.30,ESE,111,7.6,11.0,40,0.00,,,0.00,VWS V13.01,2013-01-02 01:26:00,
2013-01-01 17:31:00,40.6,18.2,30.30,ESE,109,10.1,11.9,40,0.00,,,0.00,VWS V13.01,2013-01-02 01:31:00,
2013-01-01 17:36:00,40.5,18.1,30.30,ESE,106,5.8,8.3,40,0.00,,,0.00,VWS V13.01,2013-01-02 01:36:00,
2013-01-01 17:41:00,40.3,17.9,30.30,ESE,117,6.3,8.3,40,0.00,,,0.00,VWS V13.01,2013-01-02 01:41:00,
2013-01-01 17:46:00,40.3,17.9,30.30,SSE,147,8.3,15.0,40,0.00,,,0.00,VWS V13.01,2013-01-02 01:46:00,
2013-01-01 17:51:00,40.3,17.9,30.30,SSE,151,8.3,12.8,40,0.00,,,0.00,VWS V13.01,2013-01-02 01:51:00,
2013-01-01 17:56:00,40.1,17.7,30.30,SE,131,6.3,10.1,40,0.00,,,0.00,VWS V13.01,2013-01-02 01:56:00,
2013-01-01 18:01:00,40.1,17.7,30.30,ESE,116,10.5,10.5,40,0.00,,,0.00,VWS V13.01,2013-01-02 02:01:00,
2013-01-01 18:06:00,40.1,17.7,30.30,SE,142,14.5,14.5,40,0.00,,,0.00,VWS V13.01,2013-01-02 02:06:00,
2013-01-01 18:11:00,40.1,17.7,30.30,SE,136,7.6,12.3,40,0.00,,,0.00,VWS V13.01,2013-01-02 02:11:00,
2013-01-01 18:16:00,39.9,17.6,30.30,East,101,8.3,11.4,40,0.00,,,0.00,VWS V13.01,2013-01-02 02:16:00,
2013-01-01 18:21:00,39.6,17.2,30.27,SSE,150,8.1,11.0,40,0.00,,,0.00,VWS V13.01,2013-01-02 02:21:00,
2013-01-01 18:26:00,39.4,17.1,30.27,SSE,157,7.6,8.7,40,0.00,,,0.00,VWS V13.01,2013-01-02 02:26:00,
2013-01-01 18:31:00,39.2,16.9,30.27,ESE,123,8.7,11.0,40,0.00,,,0.00,VWS V13.01,2013-01-02 02:31:00,
2013-01-01 18:36:00,39.0,16.8,30.27,ESE,113,8.7,11.0,40,0.00,,,0.00,VWS V13.01,2013-01-02 02:36:00,
2013-01-01 18:41:00,38.8,17.2,30.27,ESE,113,11.0,11.0,41,0.00,,,0.00,VWS V13.01,2013-01-02 02:41:00,
2013-01-01 18:46:00,38.7,17.0,30.27,ESE,113,10.5,12.3,41,0.00,,,0.00,VWS V13.01,2013-01-02 02:46:00,
2013-01-01 18:51:00,38.7,17.0,30.27,ESE,112,11.0,14.1,41,0.00,,,0.00,VWS V13.01,2013-01-02 02:51:00,
2013-01-01 18:56:00,38.5,16.8,30.27,SE,130,16.8,16.8,41,0.00,,,0.00,VWS V13.01,2013-01-02 02:56:00,
2013-01-01 19:01:00,38.5,16.8,30.27,ESE,116,12.8,12.8,41,0.00,,,0.00,VWS V13.01,2013-01-02 03:01:00,
2013-01-01 19:06:00,38.3,16.7,30.27,ESE,120,12.8,12.8,41,0.00,,,0.00,VWS V13.01,2013-01-02 03:06:00,
2013-01-01 19:11:00,38.1,16.5,30.27,ESE,118,17.0,17.0,41,0.00,,,0.00,VWS V13.01,2013-01-02 03:11:00,
2013-01-01 19:16:00,38.1,16.5,30.27,SE,133,5.8,13.2,41,0.00,,,0.00,VWS V13.01,2013-01-02 03:16:00,
2013-01-01 19:21:00,38.1,16.5,30.27,SE,139,15.4,15.4,41,0.00,,,0.00,VWS V13.01,2013-01-02 03:21:00,
2013-01-01 19:26:00,38.1,15.9,30.27,ESE,116,10.1,10.5,40,0.00,,,0.00,VWS V13.01,2013-01-02 03:26:00,
2013-01-01 19:31:00,37.9,15.8,30.27,ESE,116,7.6,10.5,40,0.00,,,0.00,VWS V13.01,2013-01-02 03:31:00,
2013-01-01 19:36:00,37.9,15.8,30.27,SE,124,8.7,8.7,40,0.00,,,0.00,VWS V13.01,2013-01-02 03:36:00,
2013-01-01 19:41:00,37.9,15.8,30.27,ESE,110,12.3,17.4,40,0.00,,,0.00,VWS V13.01,2013-01-02 03:41:00,
2013-01-01 19:46:00,37.9,15.8,30.27,SE,128,9.6,9.6,40,0.00,,,0.00,VWS V13.01,2013-01-02 03:46:00,
2013-01-01 19:51:00,37.9,15.8,30.27,ESE,117,8.7,8.7,40,0.00,,,0.00,VWS V13.01,2013-01-02 03:51:00,
2013-01-01 19:56:00,37.8,15.6,30.27,ESE,115,8.1,8.7,40,0.00,,,0.00,VWS V13.01,2013-01-02 03:56:00,
2013-01-01 20:01:00,37.9,15.8,30.27,SE,132,6.7,10.1,40,0.00,,,0.00,VWS V13.01,2013-01-02 04:01:00,
2013-01-01 20:06:00,37.9,15.8,30.27,ESE,110,8.3,10.1,40,0.00,,,0.00,VWS V13.01,2013-01-02 04:06:00,
2013-01-01 20:11:00,37.9,15.8,30.27,SE,138,10.1,13.2,40,0.00,,,0.00,VWS V13.01,2013-01-02 04:11:00,
2013-01-01 20:16:00,37.9,15.8,30.27,ESE,112,8.1,11.0,40,0.00,,,0.00,VWS V13.01,2013-01-02 04:16:00,
2013-01-01 20:21:00,38.1,15.9,30.27,ESE,110,10.5,10.5,40,0.00,,,0.00,VWS V13.01,2013-01-02 04:21:00,
2013-01-01 20:26:00,38.1,15.9,30.27,SE,128,5.8,13.2,40,0.00,,,0.00,VWS V13.01,2013-01-02 04:26:00,
2013-01-01 20:31:00,38.1,15.9,30.27,SE,127,10.5,10.5,40,0.00,,,0.00,VWS V13.01,2013-01-02 04:31:00,
2013-01-01 20:36:00,38.1,15.9,30.27,South,170,7.6,15.4,40,0.00,,,0.00,VWS V13.01,2013-01-02 04:36:00,
2013-01-01 20:41:00,37.9,15.8,30.27,SSE,148,10.1,15.0,40,0.00,,,0.00,VWS V13.01,2013-01-02 04:41:00,
2013-01-01 20:46:00,37.9,15.8,30.27,SE,137,12.3,15.4,40,0.00,,,0.00,VWS V13.01,2013-01-02 04:46:00,
2013-01-01 20:51:00,37.9,15.8,30.27,SE,129,11.0,11.0,40,0.00,,,0.00,VWS V13.01,2013-01-02 04:51:00,
2013-01-01 20:56:00,38.1,15.9,30.27,ESE,104,8.7,12.8,40,0.00,,,0.00,VWS V13.01,2013-01-02 04:56:00,
2013-01-01 21:00:00,37.9,15.8,30.27,ESE,117,13.6,13.6,40,0.00,,,0.00,VWS V13.01,2013-01-02 05:00:00,
2013-01-01 21:02:00,37.9,15.8,30.27,SSE,150,8.7,8.7,40,0.00,,,0.00,VWS V13.01,2013-01-02 05:02:00,
2013-01-01 21:03:00,37.9,15.8,30.27,SE,135,8.7,10.5,40,0.00,,,0.00,VWS V13.01,2013-01-02 05:03:00,
2013-01-01 21:08:00,37.9,15.8,30.27,ESE,118,10.5,10.5,40,0.00,,,0.00,VWS V13.01,2013-01-02 05:08:00,
2013-01-01 21:13:00,37.9,15.8,30.27,ESE,110,8.7,8.7,40,0.00,,,0.00,VWS V13.01,2013-01-02 05:13:00,
2013-01-01 21:18:00,37.8,15.6,30.27,SE,127,10.5,10.5,40,0.00,,,0.00,VWS V13.01,2013-01-02 05:18:00,
2013-01-01 21:23:00,37.8,15.6,30.27,SE,130,9.2,9.6,40,0.00,,,0.00,VWS V13.01,2013-01-02 05:23:00,
2013-01-01 21:28:00,37.8,15.6,30.27,ESE,104,16.3,16.3,40,0.00,,,0.00,VWS V13.01,2013-01-02 05:28:00,
2013-01-01 21:33:00,37.8,15.6,30.27,SE,145,13.2,13.2,40,0.00,,,0.00,VWS V13.01,2013-01-02 05:33:00,
2013-01-01 21:38:00,37.8,15.6,30.24,SE,136,10.1,10.5,40,0.00,,,0.00,VWS V13.01,2013-01-02 05:38:00,
2013-01-01 21:43:00,37.6,15.5,30.24,SSE,152,9.6,9.6,40,0.00,,,0.00,VWS V13.01,2013-01-02 05:43:00,
2013-01-01 21:48:00,37.8,15.6,30.24,SSE,153,7.6,10.5,40,0.00,,,0.00,VWS V13.01,2013-01-02 05:48:00,
2013-01-01 21:53:00,37.6,16.0,30.27,SE,139,11.0,11.0,41,0.00,,,0.00,VWS V13.01,2013-01-02 05:53:00,
2013-01-01 21:58:00,37.6,16.0,30.27,ESE,115,8.1,10.1,41,0.00,,,0.00,VWS V13.01,2013-01-02 05:58:00,
2013-01-01 22:03:00,37.6,16.0,30.27,ESE,119,8.1,8.1,41,0.00,,,0.00,VWS V13.01,2013-01-02 06:03:00,
2013-01-01 22:08:00,37.4,15.9,30.27,ESE,111,8.3,8.3,41,0.00,,,0.00,VWS V13.01,2013-01-02 06:08:00,
2013-01-01 22:13:00,37.4,15.9,30.27,ESE,123,12.8,15.9,41,0.00,,,0.00,VWS V13.01,2013-01-02 06:13:00,
2013-01-01 22:18:00,37.6,16.0,30.27,SE,138,10.1,14.5,41,0.00,,,0.00,VWS V13.01,2013-01-02 06:18:00,
2013-01-01 22:23:00,37.6,16.0,30.24,ESE,110,14.5,18.3,41,0.00,,,0.00,VWS V13.01,2013-01-02 06:23:00,
2013-01-01 22:28:00,37.6,16.0,30.24,SSE,147,11.0,13.2,41,0.00,,,0.00,VWS V13.01,2013-01-02 06:28:00,
2013-01-01 22:33:00,37.6,16.0,30.24,SE,133,15.0,15.0,41,0.00,,,0.00,VWS V13.01,2013-01-02 06:33:00,
2013-01-01 22:38:00,37.6,16.0,30.24,SE,138,12.8,12.8,41,0.00,,,0.00,VWS V13.01,2013-01-02 06:38:00,
2013-01-01 22:43:00,37.6,16.0,30.24,ESE,121,16.8,17.4,41,0.00,,,0.00,VWS V13.01,2013-01-02 06:43:00,
2013-01-01 22:48:00,37.6,16.0,30.24,ESE,122,12.8,14.1,41,0.00,,,0.00,VWS V13.01,2013-01-02 06:48:00,
2013-01-01 22:53:00,37.4,15.9,30.24,ESE,116,8.7,8.7,41,0.00,,,0.00,VWS V13.01,2013-01-02 06:53:00,
2013-01-01 22:58:00,37.4,15.9,30.24,ESE,111,11.0,12.8,41,0.00,,,0.00,VWS V13.01,2013-01-02 06:58:00,
2013-01-01 23:03:00,37.4,15.9,30.24,ESE,119,8.7,10.1,41,0.00,,,0.00,VWS V13.01,2013-01-02 07:03:00,
2013-01-01 23:08:00,37.4,15.9,30.27,SSE,154,8.1,11.0,41,0.00,,,0.00,VWS V13.01,2013-01-02 07:08:00,
2013-01-01 23:13:00,37.4,15.9,30.27,ESE,112,8.7,15.0,41,0.00,,,0.00,VWS V13.01,2013-01-02 07:13:00,
2013-01-01 23:18:00,37.4,15.9,30.27,ESE,120,14.1,14.1,41,0.00,,,0.00,VWS V13.01,2013-01-02 07:18:00,
2013-01-01 23:23:00,37.4,15.9,30.24,ESE,117,6.3,15.0,41,0.00,,,0.00,VWS V13.01,2013-01-02 07:23:00,
2013-01-01 23:28:00,37.4,15.9,30.24,ESE,121,12.8,16.8,41,0.00,,,0.00,VWS V13.01,2013-01-02 07:28:00,
2013-01-01 23:33:00,37.4,15.9,30.24,SE,141,15.4,17.0,41,0.00,,,0.00,VWS V13.01,2013-01-02 07:33:00,
2013-01-01 23:38:00,37.6,16.0,30.24,SE,124,15.4,22.8,41,0.00,,,0.00,VWS V13.01,2013-01-02 07:38:00,
2013-01-01 23:43:00,37.6,16.0,30.24,ESE,117,15.0,15.4,41,0.00,,,0.00,VWS V13.01,2013-01-02 07:43:00,
2013-01-01 23:48:00,37.6,16.0,30.24,SE,125,15.0,15.0,41,0.00,,,0.00,VWS V13.01,2013-01-02 07:48:00,
2013-01-01 23:53:00,37.6,16.0,30.24,SSE,152,15.4,15.4,41,0.00,,,0.00,VWS V13.01,2013-01-02 07:53:00,
2013-01-01 23:58:00,37.6,16.0,30.24,ESE,115,13.2,16.3,41,0.00,,,0.00,VWS V13.01,2013-01-02 07:58:00,